User: anonymous
Location: Oshawa
(43.9000°N, 78.8670°W)
Time: 18:06:21
(UTC-04:00)
Language:

Cosmos 839 Rocket - Orbit

View from above orbital plane
View from above orbital plane
View from above satellite
View from above satellite

Ground track
Ground track

The orbit data is extracted from the following two-line orbital elements,

1 09013U 76067B   14109.20145731 -.00000024  00000-0  10470-3 0  4871
2 09013 065.8644 088.7673 0712492 166.2347 281.7330 12.35300597703987
Epoch (UTC): 19 April 2014 04:50:05
Eccentricity: 0.0712492
inclination: 65.8644°
perigee height: 963 km
apogee height: 2090 km
right ascension of ascending node: 88.7673°
argument of perigee: 166.2347°
revolutions per day: 12.35300597
mean anomaly at epoch: 281.7330°
orbit number at epoch: 70398

The dashed part of the orbit path shows where the satellite is in the earth's shadow,  

DLR